Location: Poughquag
(41.6090°N, 73.6820°W)
Time: 13:46:00
(UTC-04:00)

Altair - Pass Details

Date: 31 May 2020
Orbit: 1501 x 1683 km, 47.2° (Epoch: 05 July)

Event Time Altitude Azimuth Distance (km) Brightness Sun altitude
Rises 22:14:35 0° 226° (SW) 4,800 10.0 -16.5°
Reaches altitude 10° 22:17:40 10° 223° (SW) 3,839 9.5 -16.9°
Maximum altitude 22:27:23 67° 144° (SE) 1,777 7.5 -18.0°
Drops below altitude 10° 22:37:24 10° 65° (ENE) 3,947 9.6 -19.0°
Sets 22:40:37 0° 63° (ENE) 4,940 10.1 -19.3°
